Weather History for KFWC - March, 2013

Change the Weather History Date:

Sunday, March 10, 2013

  Actual Average (KMVN) Record (KMVN)
Temperature  
Mean Temperature 57 °F -  
Max Temperature 64 °F 48 °F 73 °F (2009)
Min Temperature 50 °F 30 °F 15 °F (2003)
Degree Days  
Heating Degree Days 8    
Growing Degree Days 7 (Base 50)    
Moisture  
Dew Point 45 °F    
Average Humidity 69    
Maximum Humidity 94    
Minimum Humidity 47    
Precipitation  
Precipitation 0.30 in - - ()
Sea Level Pressure  
Sea Level Pressure 29.80 in    
Wind  
Wind Speed 11 mph (South)    
Max Wind Speed 23 mph    
Max Gust Speed 32 mph    
Visibility 10 miles    
Events Rain    
Averages and records for this station are not official NWS values.
T = Trace of Precipitation, MM = Missing Value Source: NWS Daily Summary

Daily Weather History Graph

Daily Weather History Graph

Search for Another Location

Airport or City:

Trip Planner

Search our weather history database for the weather conditions in past years. The results will help you decide how hot, cold, wet, or windy it might be!

Date:

Astronomy

Mar. 10, 2013 Rise Set
Actual Time 7:12 AM CDT 6:56 PM CDT
Civil Twilight 6:45 AM CDT 7:22 PM CDT
Nautical Twilight 6:15 AM CDT 7:53 PM CDT
Astronomical Twilight 5:44 AM CDT 8:24 PM CDT
Moon 6:11 AM CDT (3/10) 6:03 PM CDT (3/10)
Length of Visible Light 12h 36m
Length of Day
11h 44m
Waning Crescent, 2% of the Moon is Illuminated
Mar 10
Waning Crescent
Mar 11
New
Mar 19
First Quarter
Mar 27
Full
Apr 2
Last Quarter

Hourly Weather History & Observations

Time (CDT) Temp. Dew Point Humidity Pressure Visibility Wind Dir Wind Speed Gust Speed Precip Events Conditions
12:15 AM 55.4 °F 35.6 °F 47% 29.90 in 10.0 mi South 11.5 mph 18.4 mph N/A   Clear
12:35 AM 55.4 °F 35.6 °F 47% 29.90 in 10.0 mi South 11.5 mph 17.3 mph N/A   Clear
12:55 AM 55.4 °F 37.4 °F 51% 29.90 in 10.0 mi South 9.2 mph - N/A   Clear
1:15 AM 55.4 °F 37.4 °F 51% 29.90 in 10.0 mi South 11.5 mph 16.1 mph N/A   Scattered Clouds
1:35 AM 55.4 °F 37.4 °F 51% 29.89 in 10.0 mi South 10.4 mph - N/A   Scattered Clouds
1:55 AM 55.4 °F 37.4 °F 51% 29.88 in 10.0 mi South 10.4 mph - N/A   Scattered Clouds
3:15 AM 55.4 °F 37.4 °F 51% 29.88 in 10.0 mi South 10.4 mph - N/A   Scattered Clouds
3:35 AM 55.4 °F 39.2 °F 54% 29.87 in 10.0 mi SSE 8.1 mph - N/A   Scattered Clouds
3:55 AM 55.4 °F 39.2 °F 54% 29.86 in 10.0 mi South 8.1 mph - N/A   Mostly Cloudy
4:15 AM 55.4 °F 39.2 °F 54% 29.85 in 10.0 mi SSE 9.2 mph - N/A   Mostly Cloudy
4:35 AM 55.4 °F 39.2 °F 54% 29.86 in 10.0 mi SSE 8.1 mph - N/A   Scattered Clouds
4:55 AM 55.4 °F 39.2 °F 54% 29.86 in 10.0 mi South 11.5 mph 16.1 mph N/A   Clear
5:15 AM 57.2 °F 39.2 °F 51% 29.86 in 10.0 mi South 10.4 mph - N/A   Clear
5:35 AM 55.4 °F 41.0 °F 58% 29.86 in 10.0 mi South 9.2 mph - N/A   Clear
5:55 AM 55.4 °F 42.8 °F 63% 29.85 in 10.0 mi South 10.4 mph - N/A   Clear
6:15 AM 55.4 °F 42.8 °F 63% 29.86 in 10.0 mi South 6.9 mph - N/A   Clear
6:35 AM 55.4 °F 44.6 °F 67% 29.86 in 10.0 mi South 9.2 mph - N/A   Clear
6:55 AM 55.4 °F 44.6 °F 67% 29.86 in 10.0 mi South 8.1 mph - N/A   Scattered Clouds
7:15 AM 55.4 °F 44.6 °F 67% 29.86 in 10.0 mi South 9.2 mph - N/A   Scattered Clouds
7:35 AM 55.4 °F 44.6 °F 67% 29.87 in 10.0 mi South 9.2 mph - N/A   Scattered Clouds
7:55 AM 55.4 °F 44.6 °F 67% 29.86 in 10.0 mi South 11.5 mph - N/A   Scattered Clouds
8:15 AM 55.4 °F 42.8 °F 63% 29.86 in 10.0 mi South 9.2 mph - N/A   Clear
8:35 AM 57.2 °F 44.6 °F 63% 29.87 in 10.0 mi South 11.5 mph - N/A   Scattered Clouds
8:55 AM 57.2 °F 44.6 °F 63% 29.85 in 10.0 mi South 10.4 mph - N/A   Scattered Clouds
9:15 AM 57.2 °F 44.6 °F 63% 29.84 in 10.0 mi SSE 10.4 mph - N/A   Clear
9:35 AM 60.8 °F 46.4 °F 59% 29.83 in 10.0 mi South 13.8 mph 19.6 mph N/A   Clear
9:55 AM 60.8 °F 46.4 °F 59% 29.83 in 10.0 mi South 15.0 mph 20.7 mph N/A   Clear
10:15 AM 60.8 °F 46.4 °F 59% 29.83 in 10.0 mi South 19.6 mph 24.2 mph N/A   Clear
10:35 AM 62.6 °F 46.4 °F 55% 29.83 in 10.0 mi South 17.3 mph 25.3 mph N/A   Clear
10:55 AM 62.6 °F 46.4 °F 55% 29.82 in 10.0 mi SSE 17.3 mph 20.7 mph N/A   Clear
11:15 AM 62.6 °F 46.4 °F 55% 29.83 in 10.0 mi SSE 13.8 mph 25.3 mph N/A   Clear
11:35 AM 62.6 °F 46.4 °F 55% 29.83 in 10.0 mi South 15.0 mph 20.7 mph N/A   Scattered Clouds
11:55 AM 64.4 °F 46.4 °F 52% 29.82 in 10.0 mi South 18.4 mph 26.5 mph N/A   Scattered Clouds
12:15 PM 64.4 °F 46.4 °F 52% 29.79 in 10.0 mi South 20.7 mph 26.5 mph N/A   Clear
12:35 PM 62.6 °F 46.4 °F 55% 29.78 in 10.0 mi SSE 20.7 mph 25.3 mph N/A   Clear
12:55 PM 62.6 °F 46.4 °F 55% 29.77 in 10.0 mi South 19.6 mph 28.8 mph N/A   Clear
1:15 PM 62.6 °F 46.4 °F 55% 29.76 in 10.0 mi South 17.3 mph 28.8 mph N/A   Clear
1:35 PM 64.4 °F 46.4 °F 52% 29.76 in 10.0 mi SSE 19.6 mph 25.3 mph N/A   Clear
1:55 PM 64.4 °F 46.4 °F 52% 29.75 in 10.0 mi South 23.0 mph 29.9 mph N/A   Clear
2:15 PM 64.4 °F 46.4 °F 52% 29.73 in 10.0 mi South 23.0 mph 29.9 mph N/A   Clear
2:35 PM 64.4 °F 46.4 °F 52% 29.72 in 10.0 mi South 21.9 mph 27.6 mph N/A   Scattered Clouds
2:55 PM 64.4 °F 46.4 °F 52% 29.70 in 10.0 mi SSE 18.4 mph 24.2 mph N/A   Overcast
3:15 PM 64.4 °F 46.4 °F 52% 29.71 in 10.0 mi South 20.7 mph 24.2 mph N/A   Overcast
3:35 PM 64.4 °F 46.4 °F 52% 29.70 in 10.0 mi South 20.7 mph 32.2 mph N/A   Overcast
3:55 PM 64.4 °F 46.4 °F 52% 29.70 in 10.0 mi South 20.7 mph 26.5 mph N/A   Overcast
4:15 PM 62.6 °F 50.0 °F 63% 29.71 in 10.0 mi South 16.1 mph 24.2 mph N/A Rain Rain
4:35 PM 55.4 °F 53.6 °F 94% 29.74 in 5.0 mi West 10.4 mph 16.1 mph 0.04 in Rain Rain
4:55 PM 55.4 °F 51.8 °F 88% 29.75 in 10.0 mi West 5.8 mph - 0.10 in Rain Rain
5:15 PM 51.8 °F 48.2 °F 88% 29.76 in 7.0 mi WNW 8.1 mph 16.1 mph 0.06 in Rain Heavy Rain
5:35 PM 51.8 °F 48.2 °F 88% 29.77 in 7.0 mi WNW 4.6 mph - 0.08 in Rain Rain
5:55 PM 51.8 °F 48.2 °F 88% 29.77 in 7.0 mi Calm Calm - 0.11 in Rain Rain
6:15 PM 51.8 °F 48.2 °F 88% 29.76 in 10.0 mi Calm Calm - 0.04 in Rain Rain
6:35 PM 51.8 °F 48.2 °F 88% 29.74 in 10.0 mi ESE 5.8 mph - 0.08 in Rain Rain
6:55 PM 51.8 °F 48.2 °F 88% 29.75 in 10.0 mi ESE 5.8 mph - 0.08 in Rain Light Rain
7:15 PM 50.0 °F 48.2 °F 94% 29.75 in 10.0 mi ESE 6.9 mph - 0.01 in Rain Rain
7:35 PM 50.0 °F 48.2 °F 94% 29.74 in 10.0 mi SE 6.9 mph - 0.01 in Rain Light Rain
7:55 PM 50.0 °F 48.2 °F 94% 29.74 in 10.0 mi SE 5.8 mph - 0.01 in   Overcast
8:15 PM 50.0 °F 48.2 °F 94% 29.75 in 10.0 mi Calm Calm - N/A   Overcast
8:35 PM 50.0 °F 48.2 °F 94% 29.76 in 10.0 mi SSE 4.6 mph - N/A   Overcast
8:55 PM 51.8 °F 48.2 °F 88% 29.75 in 10.0 mi SSE 5.8 mph - N/A   Overcast
9:15 PM 51.8 °F 48.2 °F 88% 29.75 in 10.0 mi South 5.8 mph - N/A   Overcast
9:35 PM 51.8 °F 50.0 °F 94% 29.75 in 10.0 mi South 8.1 mph - N/A   Overcast
9:55 PM 51.8 °F 50.0 °F 94% 29.75 in 10.0 mi South 9.2 mph - N/A   Overcast
10:15 PM 51.8 °F 50.0 °F 94% 29.75 in 10.0 mi South 9.2 mph - N/A   Overcast
10:35 PM 51.8 °F 50.0 °F 94% 29.75 in 10.0 mi SSW 8.1 mph - N/A   Overcast
10:55 PM 51.8 °F 50.0 °F 94% 29.75 in 10.0 mi SSW 8.1 mph - N/A   Mostly Cloudy
11:15 PM 51.8 °F 48.2 °F 88% 29.75 in 10.0 mi SSW 8.1 mph - N/A   Scattered Clouds
11:35 PM 51.8 °F 48.2 °F 88% 29.75 in 10.0 mi SSW 9.2 mph - N/A   Mostly Cloudy
11:55 PM 50.0 °F 48.2 °F 94% 29.75 in 10.0 mi SSW 6.9 mph - N/A   Clear
12:15 AM 50.0 °F 48.2 °F 94% 29.75 in 10.0 mi SSW 10.4 mph - N/A   Mostly Cloudy
12:35 AM 51.8 °F 48.2 °F 88% 29.74 in 10.0 mi SSW 8.1 mph - N/A   Overcast
12:55 AM 50.0 °F 48.2 °F 94% 29.73 in 10.0 mi SSW 8.1 mph - N/A   Mostly Cloudy